Погода в Барятине

Россия / Калужская область     54°43′45″N   36°49′51″E
темп.,
°C
ветер,
м/с
пор.,
м/с
влажн.,
%
обл.,
%
осадки,
мм/ч
давл.,
гПа
погр.,
м
17 мая, пн
пн1700:00+13юв2287100 0.0 101320
03:00+12в22889 0.0 101432
06:00+14в398987 0.0 1013212
09:00+18в412846 0.7 1012532
12:00+24вюв696267 0.0 1011967
15:00+26вюв6105698 0.0 10091579
18:00+24юв6116398 0.0 10081204
21:00+20юв515770 0.0 1008626
18 мая, вт
вт1800:00+18юв51681100 0.0 1008554
03:00+16вюв412831 0.0 1008294
06:00+15вюв311815 0.0 1008272
09:00+20юв5105999 0.0 1007482
12:00+25юв6114843 0.0 1007966
15:00+25вюв61150100 0.0 10061227
18:00+23вюв61361100 0.0 10051213
21:00+19юв51379100 0.0 1005525
19 мая, ср
ср1900:00+16юв2692100 0.0 1006148
03:00+14вюв369340 0.0 1006140
06:00+16юв4118299 0.0 1007625
09:00+19ююв4868100 0.0 1007794
12:00+22юв595889 0.1 10061720
15:00+21ююв356819 1.3 10061057
18:00+20юв248225 1.5 1005295
21:00+15ююв229398 1.8 100637
20 мая, чт
чт2000:00+14юв239490 0.0 100651
03:00+13в3696100 0.1 1005121
06:00+14вюв51394100 0.1 1006590
09:00+16юв61080100 0.2 10051091
12:00+18ююв696212 0.3 10061285
15:00+18ююв6971100 1.3 10061381
18:00+16ю47815 1.3 1005837
21:00+12ю4109497 1.9 1006429
21 мая, пт
пт2100:00+10ююз41193100 0.0 1006676
03:00+8ююз51190100 0.1 1007861
06:00+9ююз61291100 0.1 10081080
09:00+9юз71386100 0.1 10101132
12:00+10юз61186100 0.0 10131152
15:00+11зюз4984100 0.1 10161029
18:00+13зсз367791 0.1 1017877
21:00+9всв1191100 0.1 101911